Torna al catalogo

STARLINK-35222

AttivoComunicazioniVLEO
NORAD 65677·PAYLOAD·🇺🇸 United States

Lanciato Sep 21, 2025 da Cape Canaveral Space Force Station

Loading…

Prossimi Passaggi (prossime 24 ore)

TLE

AggiornatoSource: CelesTrak SupGP

Epoca: Sep 14, 2026, 14:11 UTC

1 65677C 25212B   26257.59145833  .00039393  00000+0  11644-2 0  2574
2 65677  53.1580 185.5325 0001200 105.2677 251.6392 15.34356645    16

Traccia STARLINK-35222 in tempo reale con AllMySat

Download on the App Store